Location: Sternwarte_Laufen
(47.9344°N, 12.9346°E)
Time: 01:37:39
(UTC+02:00)

Envisat - Pass Details

Date: 15 May 2026
Orbit: 761 x 763 km, 98.4° (Epoch: 7 June)

Event Time Altitude Azimuth Distance (km) Brightness Sun altitude
Rises 02:33:26 0° 28° (NNE) 3,235 7.8 -20.3°
Reaches altitude 10° 02:36:29 10° 47° (NE) 2,303 6.4 -20.1°
Maximum altitude 02:39:55 18° 90° (E) 1,801 5.2 -19.9°
Drops below altitude 10° 02:43:20 10° 133° (SE) 2,290 5.3 -19.7°
Enters shadow 02:44:05 - 139° (SE) 2,495 5.4 -19.6°
